Location: Earls Croome
(52.0667°N, 2.2000°W)
Time: 13:33:29
(UTC+00:00)

BREEZE-M DEB (TANK) - Pass Details

Date: 17 November 2019
Orbit: 398 x 14925 km, 46.0° (Epoch: 14 December)

Event Time Altitude Azimuth Distance (km) Brightness Sun altitude
Exits shadow 05:40:45 21° 221° (SW) 1,085 4.0 -16.8°
Maximum altitude 05:41:20 22° 203° (SSW) 999 4.0 -16.7°
Drops below altitude 10° 05:43:32 10° 146° (SE) 1,441 5.6 -16.3°
Sets 05:45:41 0° 128° (SE) 2,405 7.2 -16.0°
